sat.trackr.live / text

‹ back to catalog

STARLINK-6301

NORAD 56392 · 2023-061U

PAYLOAD ACTIVE UNKNOWN

§ Identity

Operator
Country
US
Launch date
2023-05-04
Launch site
AFETR
Launch vehicle
Mass (kg)
RCS (m²)

Purposes: comms

External: N2YO · Heavens-Above · Gunter

§ Orbital elements

Epoch: 2026-05-25T04:46:07.158144Z

Period
94.27 min
Inclination
43.0031°
Eccentricity
0.0000971
Mean motion
15.27579537 rev/d
Perigee alt
482.4 km
Apogee alt
483.7 km
Semi-major
6,861.2 km
B*
1.8221e-5
RAAN
115.1320°
Arg perigee
246.8716°
Mean anomaly
113.2034°
Rev number
16,857

§ Raw data

STARLINK-63011 56392U 23061U   26145.19869396  .00000239  00000+0  18221-4 0  99972 56392  43.0031 115.1320 0000971 246.8716 113.2034 15.27579537168574

JSON: /api/v1/satellites/56392 · /tle

For live sub-satellite position, see the globe view (requires WebGL).

§ Visibility from observer

Set your observer location to see the next 7 days of passes ≥ 10°. The values pass through the URL so the page stays shareable.

No JS? Fill the form by hand. The geolocation button needs JavaScript.